User: anonymous
Location: Unspecified
(0.0000°N, 0.0000°E)
Time: 11:28:46
(UTC+02:00)
Language:

Cosmos 2263 Rocket - Orbit

View from above orbital plane
View from above orbital plane
View from above satellite
View from above satellite

Ground track
Ground track

The orbit data is extracted from the following two-line orbital elements,

1 22803U 93059B   14257.31209498 -.00000241  00000-0 -96510-4 0  3613
2 22803 070.9906 211.0201 0015061 122.1748 238.0838 14.16675436 85685
Epoch (UTC): 14 September 2014 07:29:25
Eccentricity: 0.0015061
inclination: 70.9906°
perigee height: 826 km
apogee height: 847 km
right ascension of ascending node: 211.0201°
argument of perigee: 122.1748°
revolutions per day: 14.16675436
mean anomaly at epoch: 238.0838°
orbit number at epoch: 8568

The dashed part of the orbit path shows where the satellite is in the earth's shadow,  

DLR